Location: Chochol
(49.7771°N, 14.9780°E)
Time: 12:06:59
(UTC+00:00)

Cosmos 1980 Rocket - Pass Details

Date: 09 April 2020
Orbit: 828 x 851 km, 71.0° (Epoch: 02 June)

Event Time Altitude Azimuth Distance (km) Brightness Sun altitude
Rises 19:53:03 0° 333° (NNW) 3,387 6.5 -19.2°
Reaches altitude 10° 19:55:43 10° 343° (NNW) 2,453 5.4 -19.6°
Maximum altitude 20:00:51 35° 49° (NE) 1,320 3.1 -20.2°
Enters shadow 20:02:44 28° 86° (E) 1,523 3.2 -20.4°
